GW3789 Weather Reports


Display with metric or nautical units.
time (UTC)temp
F
wind
direction
speed
MPH
gust
MPH
rain 1hr
in
rain 24hr
in
rain mn
in
humidity
%
barometer
mb
20260905130016 79 314 0.0 6.0 0.00 0.00 0.00 48 1027.4
20260905125512 78 309 1.0 7.0 0.00 0.00 0.00 47 1027.4
20260905125011 78 286 3.0 7.0 0.00 0.00 0.00 47 1027.5
20260905124527 78 299 4.0 7.0 0.00 0.00 0.00 47 1027.5
20260905124013 78 288 3.0 6.0 0.00 0.00 0.00 47 1027.4
20260905123515 79 302 3.0 6.0 0.00 0.00 0.00 45 1027.4
20260905123005 78 266 1.0 4.0 0.00 0.00 0.00 46 1027.4
20260905122503 79 289 1.0 5.0 0.00 0.00 0.00 50 1027.4
20260905122004 78 79 0.0 5.0 0.00 0.00 0.00 49 1027.3
20260905121509 78 296 3.0 5.0 0.00 0.00 0.00 50 1027.4
20260905121004 77 283 1.0 6.0 0.00 0.00 0.00 48 1027.3
20260905120508 77 283 3.0 6.0 0.00 0.00 0.00 51 1027.3
20260905120012 77 315 2.0 6.0 0.00 0.00 0.00 49 1027.3
20260905115510 77 323 3.0 6.0 0.00 0.00 0.00 50 1027.3
20260905115011 77 276 1.0 7.0 0.00 0.00 0.00 48 1027.4
20260905114518 78 288 2.0 7.0 0.00 0.00 0.00 49 1027.4
20260905114011 79 285 3.0 5.0 0.00 0.00 0.00 47 1027.4
20260905113512 80 221 1.0 2.0 0.00 0.00 0.00 48 1027.3
20260905113023 78 84 0.0 2.0 0.00 0.00 0.00 48 1027.4
20260905112514 77 259 1.0 4.0 0.00 0.00 0.00 49 1027.3
20260905112015 78 318 1.0 4.0 0.00 0.00 0.00 46 1027.4
20260905111534 78 274 0.0 2.0 0.00 0.00 0.00 48 1027.3
20260905111007 78 69 1.0 3.0 0.00 0.00 0.00 50 1027.3
20260905110506 77 92 0.0 3.0 0.00 0.00 0.00 49 1027.4
20260905110009 76 32 0.0 3.0 0.00 0.00 0.00 50 1027.4
20260905105508 76 70 1.0 3.0 0.00 0.00 0.00 49 1027.4
20260905105008 76 16 0.0 3.0 0.00 0.00 0.00 50 1027.5
20260905104513 76 63 1.0 3.0 0.00 0.00 0.00 48 1027.4
20260905104016 76 75 1.0 4.0 0.00 0.00 0.00 49 1027.5
20260905103511 76 74 1.0 4.0 0.00 0.00 0.00 48 1027.5
20260905103020 76 87 1.0 3.0 0.00 0.00 0.00 49 1027.5
20260905102514 76 64 0.0 3.0 0.00 0.00 0.00 48 1027.5
20260905102014 76 90 1.0 3.0 0.00 0.00 0.00 48 1027.4
20260905101527 76 91 0.0 3.0 0.00 0.00 0.00 48 1027.5
20260905101016 76 65 1.0 3.0 0.00 0.00 0.00 48 1027.4
20260905100516 76 34 1.0 3.0 0.00 0.00 0.00 46 1027.4
20260905100035 76 28 1.0 3.0 0.00 0.00 0.00 45 1027.4
20260905095504 75 81 0.0 3.0 0.00 0.00 0.00 46 1027.4
20260905095006 74 310 0.0 3.0 0.00 0.00 0.00 45 1027.4
20260905094511 74 281 1.0 4.0 0.00 0.00 0.00 43 1027.4
20260905094009 75 14 1.0 4.0 0.00 0.00 0.00 44 1027.3
20260905093510 75 216 0.0 2.0 0.00 0.00 0.00 47 1027.3
20260905093018 74 72 0.0 2.0 0.00 0.00 0.00 44 1027.2
20260905092512 74 107 1.0 3.0 0.00 0.00 0.00 49 1027.2
20260905092014 74 93 1.0 3.0 0.00 0.00 0.00 50 1027.2
20260905091530 73 68 0.0 2.0 0.00 0.00 0.00 52 1027.3
20260905091013 73 350 0.0 2.0 0.00 0.00 0.00 52 1027.3
20260905090515 72 62 0.0 2.0 0.00 0.00 0.00 55 1027.3
20260905090029 72 77 0.0 2.0 0.00 0.00 0.00 60 1027.2
20260905085516 72 99 1.0 2.0 0.00 0.00 0.00 62 1027.1
20260905085016 72 72 0.0 2.0 0.00 0.00 0.00 58 1027.1
20260905084528 73 75 0.0 1.0 0.00 0.00 0.00 60 1027.0
20260905084017 74 72 0.0 1.0 0.00 0.00 0.00 60 1027.0
20260905083506 74 73 0.0 1.0 0.00 0.00 0.00 55 1026.9
20260905083014 74 68 0.0 2.0 0.00 0.00 0.00 55 1026.9
20260905082511 74 16 0.0 3.0 0.00 0.00 0.00 52 1026.9
20260905082009 73 103 1.0 3.0 0.00 0.00 0.00 51 1026.8
20260905081519 72 101 1.0 2.0 0.00 0.00 0.00 52 1026.7
20260905081011 72 89 0.0 2.0 0.00 0.00 0.00 61 1026.5
20260905080513 73 91 0.0 2.0 0.00 0.00 0.00 61 1026.6
20260905080027 73 101 1.0 2.0 0.00 0.00 0.00 55 1026.5
20260905075515 73 102 0.0 1.0 0.00 0.00 0.00 56 1026.4
20260905075015 73 117 0.0 1.0 0.00 0.00 0.00 54 1026.4
20260905074531 73 93 1.0 1.0 0.00 0.00 0.00 53 1026.4
20260905074017 73 113 0.0 2.0 0.00 0.00 0.00 50 1026.4
20260905073517 73 116 0.0 2.0 0.00 0.00 0.00 52 1026.3
20260905073032 72 98 0.0 2.0 0.00 0.00 0.00 52 1026.3
20260905072518 72 98 0.0 1.0 0.00 0.00 0.00 53 1026.2
20260905072023 71 86 0.0 2.0 0.00 0.00 0.00 54 1026.2
20260905071516 70 82 0.0 2.0 0.00 0.00 0.00 55 1026.2
20260905071012 70 100 0.0 2.0 0.00 0.00 0.00 54 1026.2
20260905070512 70 88 0.0 2.0 0.00 0.00 0.00 55 1026.1
20260905070023 69 94 0.0 2.0 0.00 0.00 0.00 54 1026.1
20260905065514 69 93 0.0 2.0 0.00 0.00 0.00 56 1026.0
20260905065013 68 99 0.0 2.0 0.00 0.00 0.00 57 1026.0
20260905064526 68 108 0.0 2.0 0.00 0.00 0.00 56 1025.9
20260905064015 67 152 0.0 2.0 0.00 0.00 0.00 57 1025.9
20260905063516 67 111 0.0 2.0 0.00 0.00 0.00 56 1025.8
20260905063030 67 91 0.0 2.0 0.00 0.00 0.00 56 1025.8
20260905062516 69 98 0.0 1.0 0.00 0.00 0.00 56 1025.8
20260905062018 68 97 0.0 1.0 0.00 0.00 0.00 55 1025.9
20260905061538 68 96 0.0 1.0 0.00 0.00 0.00 57 1025.9
20260905061015 68 96 0.0 1.0 0.00 0.00 0.00 56 1025.8
20260905060516 67 97 0.0 1.0 0.00 0.00 0.00 55 1025.7
20260905060033 67 105 0.0 2.0 0.00 0.00 0.00 56 1025.7
20260905055513 66 133 0.0 2.0 0.00 0.00 0.00 57 1025.5
20260905055013 66 94 0.0 1.0 0.00 0.00 0.00 58 1025.5
20260905054530 65 76 0.0 1.0 0.00 0.00 0.00 57 1025.4
20260905054015 65 141 0.0 1.0 0.00 0.00 0.00 58 1025.3
20260905053518 64 91 0.0 1.0 0.00 0.00 0.00 59 1025.3
20260905053028 64 129 0.0 1.0 0.00 0.00 0.00 59 1025.2
20260905052515 64 111 0.0 1.0 0.00 0.00 0.00 59 1025.2
20260905052018 64 105 0.0 1.0 0.00 0.00 0.00 59 1025.2
20260905051532 64 108 0.0 1.0 0.00 0.00 0.00 59 1025.2
20260905051018 64 89 0.0 2.0 0.00 0.00 0.00 59 1025.1
20260905050503 64 127 0.0 2.0 0.00 0.00 0.00 59 1025.0
20260905050002 64 94 0.0 2.0 0.00 0.00 0.00 59 1025.0
20260905045502 64 112 0.0 1.0 0.00 0.00 0.00 60 1024.9
20260905045003 63 104 0.0 1.0 0.00 0.00 0.00 60 1024.9
20260905044504 63 80 0.0 2.0 0.00 0.00 0.00 60 1024.9
20260905044002 63 74 0.0 2.0 0.00 0.00 0.00 60 1025.0
20260905043502 63 110 0.0 2.0 0.00 0.00 0.00 60 1025.0
20260905043003 63 80 1.0 2.0 0.00 0.00 0.00 60 1025.0
20260905042502 63 101 0.0 1.0 0.00 0.00 0.00 61 1025.0
20260905042002 63 107 0.0 2.0 0.00 0.00 0.00 62 1025.0
20260905041504 63 108 0.0 2.0 0.00 0.00 0.00 62 1025.0
20260905041002 62 110 0.0 1.0 0.00 0.00 0.00 63 1025.0
20260905040502 62 103 0.0 1.0 0.00 0.00 0.00 65 1025.0
20260905040004 61 94 0.0 1.0 0.00 0.00 0.00 66 1025.0
20260905035506 61 87 0.0 1.0 0.00 0.00 0.00 66 1025.0
20260905035003 61 88 0.0 1.0 0.00 0.00 0.00 66 1025.0
20260905034503 61 88 0.0 1.0 0.00 0.00 0.00 68 1025.0
20260905034003 60 103 0.0 1.0 0.00 0.00 0.00 68 1025.0
20260905033503 60 103 0.0 0.0 0.00 0.00 0.00 68 1025.0
20260905033005 60 103 0.0 0.0 0.00 0.00 0.00 69 1024.9
20260905032503 60 103 0.0 0.0 0.00 0.00 0.00 69 1024.9
20260905032005 60 103 0.0 0.0 0.00 0.00 0.00 68 1024.9
20260905031504 60 103 0.0 0.0 0.00 0.00 0.00 68 1024.9
20260905031001 61 103 0.0 1.0 0.00 0.00 0.00 66 1024.9
20260905030502 62 103 0.0 1.0 0.00 0.00 0.00 64 1024.9
20260905030007 63 103 0.0 0.0 0.00 0.00 0.00 62 1024.8
20260905025502 64 124 0.0 1.0 0.00 0.00 0.00 60 1024.9
20260905025005 65 124 0.0 1.0 0.00 0.00 0.00 59 1024.8
20260905024504 65 124 0.0 4.0 0.00 0.00 0.00 59 1024.7
20260905024003 66 86 1.0 4.0 0.00 0.00 0.00 58 1024.6
20260905023504 65 81 1.0 3.0 0.00 0.00 0.00 59 1024.6
20260905023003 65 96 1.0 3.0 0.00 0.00 0.00 59 1024.5
20260905022506 65 97 1.0 3.0 0.00 0.00 0.00 60 1024.5
20260905022004 64 119 0.0 1.0 0.00 0.00 0.00 60 1024.5
20260905021503 65 96 0.0 1.0 0.00 0.00 0.00 60 1024.4
20260905021003 64 102 0.0 1.0 0.00 0.00 0.00 60 1024.4
20260905020502 64 103 0.0 1.0 0.00 0.00 0.00 60 1024.4
20260905020003 64 56 0.0 1.0 0.00 0.00 0.00 61 1024.5
20260905015504 64 44 0.0 1.0 0.00 0.00 0.00 60 1024.5
20260905015003 64 44 0.0 1.0 0.00 0.00 0.00 60 1024.5
20260905014504 64 44 0.0 1.0 0.00 0.00 0.00 60 1024.5
20260905014003 64 44 0.0 0.0 0.00 0.00 0.00 61 1024.5
20260905013502 64 44 0.0 1.0 0.00 0.00 0.00 60 1024.5
20260905013005 64 44 0.0 1.0 0.00 0.00 0.00 60 1024.6
20260905012503 64 44 0.0 1.0 0.00 0.00 0.00 60 1024.6
20260905012004 64 41 0.0 1.0 0.00 0.00 0.00 61 1024.6
20260905011502 63 26 0.0 1.0 0.00 0.00 0.00 61 1024.7
20260905011004 63 124 0.0 0.0 0.00 0.00 0.00 61 1024.8
20260905010504 63 124 0.0 0.0 0.00 0.00 0.00 62 1024.8
20260905010002 63 124 0.0 0.0 0.00 0.00 0.00 63 1024.8
20260905005503 62 124 0.0 0.0 0.00 0.00 0.00 63 1024.8
20260905005004 62 124 0.0 0.0 0.00 0.00 0.00 64 1024.8
20260905004504 63 124 0.0 0.0 0.00 0.00 0.00 63 1024.9
20260905004005 63 124 0.0 0.0 0.00 0.00 0.00 62 1024.9
20260905003502 63 124 0.0 0.0 0.00 0.00 0.00 62 1024.9
20260905003004 64 124 0.0 0.0 0.00 0.00 0.00 61 1024.9
20260905002503 64 124 0.0 0.0 0.00 0.00 0.00 60 1024.9
20260905002003 65 124 0.0 1.0 0.00 0.00 0.00 59 1025.0
20260905001506 65 124 0.0 1.0 0.00 0.00 0.00 58 1024.9
20260905001003 66 124 0.0 1.0 0.00 0.00 0.00 56 1025.0
20260905000504 68 124 0.0 1.0 0.00 0.00 0.00 55 1025.0
20260905000003 68 127 0.0 1.0 0.00 0.00 0.00 53 1025.0
20260904235504 68 128 0.0 1.0 0.00 0.00 0.00 52 1024.9
20260904235004 68 128 0.0 1.0 0.00 0.00 0.00 52 1024.8
20260904234504 69 141 0.0 1.0 0.00 0.00 0.00 52 1024.9
20260904234009 68 121 0.0 1.0 0.00 0.00 0.00 52 1024.8
20260904233503 69 121 0.0 1.0 0.00 0.00 0.00 51 1024.8
20260904233004 69 75 0.0 1.0 0.00 0.00 0.00 51 1024.8
20260904232504 69 75 0.0 1.0 0.00 0.00 0.00 51 1024.8
20260904232004 69 103 0.0 1.0 0.00 0.00 0.00 51 1024.8
20260904231505 69 103 0.0 0.0 0.00 0.00 0.00 51 1024.7
20260904231006 69 99 0.0 1.0 0.00 0.00 0.00 51 1024.7
20260904230504 69 100 0.0 1.0 0.00 0.00 0.00 50 1024.8
20260904230008 69 99 0.0 1.0 0.00 0.00 0.00 50 1024.8
20260904225505 69 99 0.0 1.0 0.00 0.00 0.00 50 1024.8
20260904225005 69 99 0.0 1.0 0.00 0.00 0.00 49 1024.7
20260904224507 69 98 0.0 1.0 0.00 0.00 0.00 50 1024.7
20260904224005 69 136 0.0 0.0 0.00 0.00 0.00 50 1024.7
20260904223505 69 136 0.0 1.0 0.00 0.00 0.00 50 1024.7
20260904223007 69 136 0.0 1.0 0.00 0.00 0.00 50 1024.7
20260904222505 69 197 0.0 0.0 0.00 0.00 0.00 50 1024.8
20260904222006 70 196 0.0 0.0 0.00 0.00 0.00 49 1024.8
20260904221508 70 196 0.0 0.0 0.00 0.00 0.00 49 1024.7
20260904221003 70 196 0.0 0.0 0.00 0.00 0.00 49 1024.7
20260904220505 70 196 0.0 0.0 0.00 0.00 0.00 49 1024.6
20260904220012 70 196 0.0 1.0 0.00 0.00 0.00 48 1024.6
20260904215507 71 196 0.0 1.0 0.00 0.00 0.00 48 1024.6
20260904215007 71 250 0.0 0.0 0.00 0.00 0.00 48 1024.5
20260904214510 71 302 0.0 1.0 0.00 0.00 0.00 48 1024.5
20260904214008 72 302 0.0 1.0 0.00 0.00 0.00 47 1024.6
20260904213504 72 302 0.0 0.0 0.00 0.00 0.00 47 1024.6
20260904213010 72 302 0.0 1.0 0.00 0.00 0.00 46 1024.8
20260904212503 72 302 0.0 1.0 0.00 0.00 0.00 46 1024.8
20260904212008 72 302 0.0 1.0 0.00 0.00 0.00 46 1024.7
20260904211508 72 321 0.0 1.0 0.00 0.00 0.00 47 1024.7
20260904211007 72 329 0.0 0.0 0.00 0.00 0.00 46 1024.9
20260904210507 72 329 0.0 0.0 0.00 0.00 0.00 45 1024.9
20260904210015 73 329 0.0 1.0 0.00 0.00 0.00 44 1024.9
20260904205507 73 329 0.0 1.0 0.00 0.00 0.00 44 1024.9
20260904205007 72 299 0.0 1.0 0.00 0.00 0.00 45 1024.9
20260904204516 72 299 0.0 1.0 0.00 0.00 0.00 45 1024.9
20260904204007 71 278 0.0 0.0 0.00 0.00 0.00 46 1024.9
20260904203509 71 278 0.0 0.0 0.00 0.00 0.00 46 1024.9
20260904203015 71 278 0.0 0.0 0.00 0.00 0.00 46 1024.9
20260904202510 72 278 0.0 1.0 0.00 0.00 0.00 46 1024.9
20260904202008 72 278 0.0 1.0 0.00 0.00 0.00 47 1024.9
20260904201514 72 278 0.0 1.0 0.00 0.00 0.00 48 1024.9
20260904201008 72 278 0.0 1.0 0.00 0.00 0.00 49 1024.8
20260904200510 72 272 0.0 1.0 0.00 0.00 0.00 49 1024.8
20260904200004 72 271 0.0 1.0 0.00 0.00 0.00 50 1024.8
20260904195506 72 256 0.0 0.0 0.00 0.00 0.00 49 1024.7
20260904195008 72 256 0.0 1.0 0.00 0.00 0.00 48 1024.7
20260904194511 72 256 0.0 1.0 0.00 0.00 0.00 48 1024.6
20260904194009 72 257 0.0 1.0 0.00 0.00 0.00 49 1024.6
20260904193509 72 276 0.0 1.0 0.00 0.00 0.00 49 1024.6
20260904193012 72 265 0.0 1.0 0.00 0.00 0.00 47 1024.5
20260904192507 72 248 0.0 1.0 0.00 0.00 0.00 47 1024.4
20260904192002 72 214 0.0 0.0 0.00 0.00 0.00 47 1024.3
20260904191503 73 214 0.0 1.0 0.00 0.00 0.00 47 1024.2
20260904191003 73 214 0.0 1.0 0.00 0.00 0.00 47 1024.1
20260904190504 73 214 0.0 0.0 0.00 0.00 0.00 47 1024.1
20260904190004 73 168 0.0 1.0 0.00 0.00 0.00 47 1024.0
20260904185503 73 153 0.0 1.0 0.00 0.00 0.00 47 1023.9
20260904185003 73 130 0.0 1.0 0.00 0.00 0.00 46 1023.8
20260904184512 74 158 0.0 1.0 0.00 0.00 0.00 46 1023.8
20260904184005 74 153 0.0 1.0 0.00 0.00 0.00 45 1023.7
20260904183507 74 157 0.0 1.0 0.00 0.00 0.00 45 1023.6
20260904183012 74 177 0.0 0.0 0.00 0.00 0.00 45 1023.6
20260904182511 75 278 0.0 0.0 0.00 0.00 0.00 44 1023.5
20260904182013 75 278 0.0 0.0 0.00 0.00 0.00 43 1023.4
20260904181522 76 278 0.0 1.0 0.00 0.00 0.00 42 1023.5
20260904181012 76 278 0.0 1.0 0.00 0.00 0.00 42 1023.4
20260904180511 77 278 0.0 1.0 0.00 0.00 0.00 41 1023.4
20260904180007 78 285 0.0 1.0 0.00 0.00 0.00 41 1023.4
20260904175502 78 285 0.0 1.0 0.00 0.00 0.00 40 1023.4
20260904175002 79 287 1.0 1.0 0.00 0.00 0.00 39 1023.5
20260904174504 80 300 0.0 2.0 0.00 0.00 0.00 39 1023.4
20260904174003 80 310 0.0 2.0 0.00 0.00 0.00 39 1023.5
20260904173502 81 284 1.0 3.0 0.00 0.00 0.00 38 1023.5
20260904173010 81 288 1.0 3.0 0.00 0.00 0.00 38 1023.4
20260904172503 81 285 1.0 2.0 0.00 0.00 0.00 37 1023.4
20260904172007 82 311 0.0 2.0 0.00 0.00 0.00 38 1023.2
20260904171519 82 327 0.0 2.0 0.00 0.00 0.00 37 1023.1
20260904171010 82 286 0.0 2.0 0.00 0.00 0.00 36 1023.1
20260904170510 82 275 0.0 3.0 0.00 0.00 0.00 41 1023.2
20260904170019 82 257 0.0 3.0 0.00 0.00 0.00 42 1023.2
20260904165514 83 283 0.0 3.0 0.00 0.00 0.00 42 1023.2
20260904165012 84 288 1.0 4.0 0.00 0.00 0.00 40 1023.2
20260904164521 84 195 0.0 4.0 0.00 0.00 0.00 39 1023.2
20260904164003 84 169 0.0 4.0 0.00 0.00 0.00 39 1023.1
20260904163504 84 113 0.0 4.0 0.00 0.00 0.00 39 1023.1
20260904163006 84 157 0.0 2.0 0.00 0.00 0.00 39 1023.1
20260904162503 84 275 0.0 4.0 0.00 0.00 0.00 39 1023.1
20260904162002 84 145 1.0 4.0 0.00 0.00 0.00 38 1023.1
20260904161514 84 120 0.0 4.0 0.00 0.00 0.00 38 1023.1
20260904161006 84 132 1.0 4.0 0.00 0.00 0.00 38 1023.1
20260904160509 84 351 1.0 4.0 0.00 0.00 0.00 37 1023.1
20260904160017 84 110 1.0 4.0 0.00 0.00 0.00 37 1023.1
20260904155509 84 152 0.0 5.0 0.00 0.00 0.00 37 1023.1
20260904155014 84 283 0.0 5.0 0.00 0.00 0.00 37 1023.1
20260904154533 84 298 0.0 8.0 0.00 0.00 0.00 40 1023.0
20260904154015 83 273 2.0 8.0 0.00 0.00 0.00 38 1023.1
20260904153513 83 244 3.0 8.0 0.00 0.00 0.00 36 1023.2
20260904153033 84 274 2.0 7.0 0.00 0.00 0.00 38 1023.0
20260904152512 84 248 2.0 7.0 0.00 0.00 0.00 40 1023.1
20260904152003 83 283 2.0 8.0 0.00 0.00 0.00 39 1023.1
20260904151510 83 266 4.0 8.0 0.00 0.00 0.00 35 1023.1
20260904151004 84 226 2.0 8.0 0.00 0.00 0.00 36 1023.1
20260904150507 84 283 1.0 8.0 0.00 0.00 0.00 37 1023.2
20260904150013 84 278 1.0 10.0 0.00 0.00 0.00 39 1023.2
20260904145508 84 333 3.0 10.0 0.00 0.00 0.00 37 1023.3
20260904145009 84 204 2.0 7.0 0.00 0.00 0.00 38 1023.4
20260904144520 84 278 3.0 7.0 0.00 0.00 0.00 37 1023.2
20260904144014 84 95 1.0 6.0 0.00 0.00 0.00 38 1023.3
20260904143510 83 202 2.0 8.0 0.00 0.00 0.00 38 1023.4
20260904143028 84 203 3.0 8.0 0.00 0.00 0.00 37 1023.2
20260904142514 84 158 1.0 7.0 0.00 0.00 0.00 36 1023.2
20260904142014 84 275 3.0 7.0 0.00 0.00 0.00 36 1023.3
20260904141529 84 234 2.0 6.0 0.00 0.00 0.00 36 1023.4
20260904141013 84 260 2.0 6.0 0.00 0.00 0.00 36 1023.4
20260904140515 85 281 3.0 6.0 0.00 0.00 0.00 37 1023.4
20260904140011 85 148 1.0 6.0 0.00 0.00 0.00 39 1023.4
20260904135507 85 291 2.0 6.0 0.00 0.00 0.00 38 1023.4
20260904135007 85 146 1.0 5.0 0.00 0.00 0.00 40 1023.4
20260904134514 85 219 0.0 6.0 0.00 0.00 0.00 38 1023.4
20260904134008 85 295 2.0 6.0 0.00 0.00 0.00 38 1023.5
20260904133510 85 132 1.0 3.0 0.00 0.00 0.00 40 1023.5
20260904133025 84 131 1.0 7.0 0.00 0.00 0.00 40 1023.5
20260904132512 84 150 1.0 7.0 0.00 0.00 0.00 40 1023.5
20260904132011 84 327 2.0 5.0 0.00 0.00 0.00 41 1023.6
20260904131523 84 293 1.0 5.0 0.00 0.00 0.00 41 1023.6
20260904131015 84 112 1.0 10.0 0.00 0.00 0.00 42 1023.6
20260904130515 84 29 1.0 10.0 0.00 0.00 0.00 43 1023.7